When you browse on this site, cookies collect data to enhance your experience and personalize the content and advertising you see.
Visit our Privacy Policy to learn more. By continuing to use the site, you agree to this use of cookies and data.
  • In Austria
  • List of Countries
  • For 7 days
  • Water Temperature
  • Weather Map
  • News
  • Weather Widgets
  • user-avatar
    Login

    Hourly Weather Sibate

    Today, 17 November, Sunday

    Time Temperature Precipitation Wind Pressure Humidity
    00:00 +11°C° 0 mm 1 mps 556 mmHg 90%
    01:00 +9°C° 0 mm 0 mps 556 mmHg 90%
    02:00 +10°C° 0 mm 1 mps 556 mmHg 89%
    03:00 +10°C° 0 mm 1 mps 556 mmHg 89%
    04:00 +10°C° 0 mm 1 mps 556 mmHg 88%
    05:00 +11°C° 0 mm 1 mps 557 mmHg 86%
    06:00 +11°C° 0 mm 0 mps 557 mmHg 84%
    07:00 +12°C° 0 mm 0 mps 558 mmHg 82%
    08:00 +14°C° 0 mm 1 mps 559 mmHg 77%
    09:00 +16°C° 0 mm 1 mps 560 mmHg 72%
    10:00 +18°C° 0 mm 2 mps 561 mmHg 66%
    11:00 +18°C° 0.1 mm 2 mps 560 mmHg 68%
    12:00 +18°C° 0.1 mm 2 mps 560 mmHg 70%
    13:00 +19°C° 0.1 mm 2 mps 559 mmHg 72%
    14:00 +18°C° 0.5 mm 2 mps 558 mmHg 77%
    15:00 +18°C° 0.5 mm 1 mps 558 mmHg 83%
    16:00 +16°C° 0.5 mm 1 mps 557 mmHg 89%
    17:00 +15°C° 0.6 mm 1 mps 557 mmHg 90%
    18:00 +14°C° 0.6 mm 1 mps 557 mmHg 92%
    19:00 +13°C° 0.6 mm 1 mps 557 mmHg 93%
    20:00 +12°C° 0.2 mm 1 mps 557 mmHg 92%
    21:00 +12°C° 0.2 mm 1 mps 557 mmHg 91%
    22:00 +11°C° 0.2 mm 1 mps 557 mmHg 90%
    23:00 +11°C° 0.1 mm 1 mps 557 mmHg 91%

    Tomorrow, 18 November, Monday

    Time Temperature Precipitation Wind Pressure Humidity
    00:00 +11°C° 0.1 mm 1 mps 556 mmHg 91%
    01:00 +10°C° 0.1 mm 1 mps 556 mmHg 91%
    02:00 +10°C° 0 mm 1 mps 556 mmHg 90%
    03:00 +10°C° 0 mm 1 mps 556 mmHg 90%
    04:00 +10°C° 0 mm 1 mps 556 mmHg 90%
    05:00 +11°C° 0 mm 1 mps 557 mmHg 87%
    06:00 +12°C° 0 mm 1 mps 557 mmHg 85%
    07:00 +12°C° 0 mm 0 mps 558 mmHg 82%
    08:00 +14°C° 0 mm 1 mps 559 mmHg 77%
    09:00 +16°C° 0 mm 1 mps 560 mmHg 73%
    10:00 +18°C° 0 mm 2 mps 561 mmHg 68%
    11:00 +18°C° 0.3 mm 2 mps 560 mmHg 72%
    12:00 +18°C° 0.3 mm 2 mps 560 mmHg 75%
    13:00 +18°C° 0.3 mm 2 mps 559 mmHg 79%
    14:00 +17°C° 0.6 mm 2 mps 558 mmHg 82%
    15:00 +16°C° 0.6 mm 1 mps 558 mmHg 86%
    16:00 +16°C° 0.6 mm 1 mps 557 mmHg 90%
    17:00 +15°C° 0.6 mm 1 mps 557 mmHg 90%
    18:00 +14°C° 0.6 mm 1 mps 558 mmHg 91%
    19:00 +12°C° 0.6 mm 0 mps 558 mmHg 92%
    20:00 +13°C° 0.5 mm 1 mps 558 mmHg 92%
    21:00 +13°C° 0.5 mm 1 mps 558 mmHg 91%
    22:00 +12°C° 0.5 mm 1 mps 558 mmHg 91%
    23:00 +12°C° 0.5 mm 1 mps 558 mmHg 90%

    Day after tomorrow, 19 November, Tuesday

    Time Temperature Precipitation Wind Pressure Humidity
    00:00 +12°C° 0.5 mm 1 mps 558 mmHg 90%
    01:00 +12°C° 0.5 mm 1 mps 557 mmHg 89%
    02:00 +11°C° 0.1 mm 0 mps 557 mmHg 90%
    03:00 +11°C° 0.1 mm 0 mps 557 mmHg 90%
    04:00 +11°C° 0.1 mm 0 mps 557 mmHg 90%
    05:00 +11°C° 0.1 mm 0 mps 558 mmHg 90%
    06:00 +11°C° 0.1 mm 0 mps 558 mmHg 89%
    07:00 +12°C° 0.1 mm 0 mps 559 mmHg 89%
    08:00 +14°C° 0.2 mm 1 mps 560 mmHg 86%
    09:00 +15°C° 0.2 mm 1 mps 560 mmHg 84%
    10:00 +16°C° 0.2 mm 1 mps 561 mmHg 81%
    11:00 +16°C° 0.7 mm 1 mps 560 mmHg 84%
    12:00 +16°C° 0.7 mm 1 mps 559 mmHg 86%
    13:00 +16°C° 0.7 mm 1 mps 559 mmHg 89%
    14:00 +15°C° 1 mm 1 mps 558 mmHg 89%
    15:00 +15°C° 1 mm 1 mps 558 mmHg 89%
    16:00 +15°C° 1 mm 1 mps 558 mmHg 89%
    17:00 +14°C° 0.8 mm 1 mps 558 mmHg 91%
    18:00 +13°C° 0.8 mm 1 mps 558 mmHg 92%
    19:00 +12°C° 0.8 mm 0 mps 558 mmHg 93%
    20:00 +11°C° 0.5 mm 0 mps 558 mmHg 93%
    21:00 +11°C° 0.5 mm 0 mps 558 mmHg 92%
    22:00 +11°C° 0.5 mm 0 mps 559 mmHg 92%
    23:00 +11°C° 0.1 mm 0 mps 558 mmHg 92%

    20 November, Wednesday

    Time Temperature Precipitation Wind Pressure Humidity
    00:00 +10°C° 0.1 mm 0 mps 558 mmHg 91%
    01:00 +10°C° 0.1 mm 0 mps 557 mmHg 91%
    02:00 +10°C° 0.1 mm 0 mps 557 mmHg 91%
    03:00 +10°C° 0.1 mm 0 mps 557 mmHg 91%
    04:00 +10°C° 0.1 mm 0 mps 557 mmHg 91%
    05:00 +10°C° 0 mm 0 mps 558 mmHg 89%
    06:00 +11°C° 0 mm 0 mps 559 mmHg 88%
    07:00 +12°C° 0 mm 0 mps 559 mmHg 86%
    08:00 +13°C° 0.4 mm 0 mps 560 mmHg 85%
    09:00 +15°C° 0.4 mm 1 mps 560 mmHg 84%
    10:00 +16°C° 0.4 mm 1 mps 561 mmHg 82%
    11:00 +16°C° 1 mm 1 mps 560 mmHg 83%
    12:00 +16°C° 1 mm 2 mps 560 mmHg 83%
    13:00 +17°C° 1 mm 2 mps 559 mmHg 84%
    14:00 +16°C° 0.9 mm 1 mps 559 mmHg 85%
    15:00 +16°C° 0.9 mm 1 mps 558 mmHg 87%
    16:00 +15°C° 0.9 mm 1 mps 558 mmHg 88%
    17:00 +14°C° 0.8 mm 1 mps 558 mmHg 90%
    18:00 +13°C° 0.8 mm 0 mps 558 mmHg 91%
    19:00 +12°C° 0.8 mm 0 mps 558 mmHg 92%
    20:00 +11°C° 1 mm 0 mps 558 mmHg 92%
    21:00 +12°C° 1 mm 1 mps 558 mmHg 92%
    22:00 +12°C° 1 mm 1 mps 558 mmHg 92%
    23:00 +12°C° 0.6 mm 1 mps 558 mmHg 92%

    21 November, Thursday

    Time Temperature Precipitation Wind Pressure Humidity
    00:00 +12°C° 0.6 mm 1 mps 558 mmHg 92%
    01:00 +10°C° 0.6 mm 0 mps 558 mmHg 91%
    02:00 +10°C° 0.3 mm 0 mps 557 mmHg 91%
    03:00 +10°C° 0.3 mm 0 mps 557 mmHg 92%
    04:00 +10°C° 0.3 mm 0 mps 557 mmHg 92%
    05:00 +10°C° 0.1 mm 0 mps 558 mmHg 91%
    06:00 +11°C° 0.1 mm 0 mps 559 mmHg 91%
    07:00 +11°C° 0.1 mm 0 mps 559 mmHg 90%
    08:00 +12°C° 0.3 mm 0 mps 560 mmHg 87%
    09:00 +15°C° 0.3 mm 1 mps 560 mmHg 84%
    10:00 +16°C° 0.3 mm 1 mps 561 mmHg 81%
    11:00 +16°C° 0.7 mm 1 mps 560 mmHg 84%
    12:00 +16°C° 0.7 mm 1 mps 559 mmHg 86%
    13:00 +16°C° 0.7 mm 1 mps 559 mmHg 89%
    14:00 +15°C° 0.7 mm 1 mps 558 mmHg 89%
    15:00 +15°C° 0.7 mm 1 mps 558 mmHg 89%
    16:00 +15°C° 0.7 mm 1 mps 558 mmHg 89%
    17:00 +14°C° 0.6 mm 1 mps 558 mmHg 90%
    18:00 +12°C° 0.6 mm 0 mps 558 mmHg 92%
    19:00 +12°C° 0.6 mm 0 mps 557 mmHg 93%
    20:00 +11°C° 0.3 mm 0 mps 558 mmHg 92%
    21:00 +11°C° 0.3 mm 0 mps 558 mmHg 91%
    22:00 +11°C° 0.3 mm 0 mps 559 mmHg 90%
    23:00 +11°C° 0.4 mm 0 mps 558 mmHg 90%

    22 November, Friday

    Time Temperature Precipitation Wind Pressure Humidity
    00:00 +11°C° 0.4 mm 0 mps 558 mmHg 91%
    01:00 +11°C° 0.4 mm 0 mps 558 mmHg 91%
    02:00 +10°C° 0.3 mm 0 mps 557 mmHg 92%
    03:00 +10°C° 0.3 mm 0 mps 557 mmHg 93%
    04:00 +10°C° 0.3 mm 0 mps 557 mmHg 94%
    05:00 +10°C° 0.2 mm 0 mps 557 mmHg 93%
    06:00 +11°C° 0.2 mm 0 mps 558 mmHg 91%
    07:00 +11°C° 0.2 mm 0 mps 559 mmHg 90%
    08:00 +12°C° 0.3 mm 0 mps 559 mmHg 88%
    09:00 +15°C° 0.3 mm 1 mps 560 mmHg 86%
    10:00 +16°C° 0.3 mm 2 mps 561 mmHg 83%
    11:00 +16°C° 0.9 mm 2 mps 560 mmHg 85%
    12:00 +15°C° 0.9 mm 1 mps 559 mmHg 87%
    13:00 +15°C° 0.9 mm 1 mps 558 mmHg 89%
    14:00 +15°C° 0.9 mm 1 mps 558 mmHg 88%
    15:00 +15°C° 0.9 mm 1 mps 558 mmHg 88%
    16:00 +15°C° 0.9 mm 1 mps 557 mmHg 87%
    17:00 +14°C° 0.8 mm 1 mps 557 mmHg 88%
    18:00 +13°C° 0.8 mm 1 mps 557 mmHg 90%
    19:00 +11°C° 0.8 mm 0 mps 557 mmHg 91%
    20:00 +11°C° 0.4 mm 0 mps 557 mmHg 91%
    21:00 +11°C° 0.4 mm 0 mps 558 mmHg 90%
    22:00 +12°C° 0.4 mm 1 mps 558 mmHg 90%
    23:00 +11°C° 0.4 mm 0 mps 558 mmHg 90%
    Show more